Time,TemperatureF,DewpointF,PressureIn,WindDirection,WindDirectionDegrees,WindSpeedMPH,WindSpeedGustMPH,Humidity,HourlyPrecipIn,Conditions,Clouds,dailyrainin,SoftwareType,DateUTC
2013-10-11 00:02:00,55.1,40.1,29.97,SE,135,1.1,1.8,57,0.00,,,0.00,WUHU216HW,2013-10-11 07:02:00,
2013-10-11 00:07:00,55.1,40.1,29.97,East,90,1.1,1.1,57,0.00,,,0.00,WUHU216HW,2013-10-11 07:07:00,
2013-10-11 00:12:00,55.1,40.5,29.97,NE,45,1.6,1.6,58,0.00,,,0.00,WUHU216HW,2013-10-11 07:12:00,
2013-10-11 00:17:00,54.9,40.3,29.97,NE,45,1.8,2.0,58,0.00,,,0.00,WUHU216HW,2013-10-11 07:17:00,
2013-10-11 00:22:00,55.1,40.5,29.97,ENE,68,2.0,2.5,58,0.00,,,0.00,WUHU216HW,2013-10-11 07:22:00,
2013-10-11 00:27:00,55.1,40.5,29.97,East,90,1.3,2.5,58,0.00,,,0.00,WUHU216HW,2013-10-11 07:27:00,
2013-10-11 00:32:00,55.1,40.5,29.97,East,90,0.7,2.0,58,0.00,,,0.00,WUHU216HW,2013-10-11 07:32:00,
2013-10-11 00:37:00,54.9,40.3,29.97,ESE,113,1.1,2.0,58,0.00,,,0.00,WUHU216HW,2013-10-11 07:37:00,
2013-10-11 00:42:00,54.7,40.1,29.97,East,90,0.9,1.8,58,0.00,,,0.00,WUHU216HW,2013-10-11 07:42:00,
2013-10-11 00:47:00,54.7,40.1,29.97,East,90,1.1,1.6,58,0.00,,,0.00,WUHU216HW,2013-10-11 07:47:00,
2013-10-11 00:52:00,54.5,40.1,29.97,East,90,0.9,1.6,58,0.00,,,0.00,WUHU216HW,2013-10-11 07:52:00,
2013-10-11 00:57:00,54.5,40.5,29.97,East,90,0.9,1.6,59,0.00,,,0.00,WUHU216HW,2013-10-11 07:57:00,
2013-10-11 01:02:00,54.4,40.3,29.97,East,90,0.4,1.1,59,0.00,,,0.00,WUHU216HW,2013-10-11 08:02:00,
2013-10-11 01:07:00,54.4,40.3,29.97,ESE,113,1.1,1.3,59,0.00,,,0.00,WUHU216HW,2013-10-11 08:07:00,
2013-10-11 01:12:00,54.4,40.3,29.97,ESE,113,0.9,1.3,59,0.00,,,0.00,WUHU216HW,2013-10-11 08:12:00,
2013-10-11 01:17:00,54.4,40.3,29.97,ESE,113,1.1,1.3,59,0.00,,,0.00,WUHU216HW,2013-10-11 08:17:00,
2013-10-11 01:22:00,54.4,40.8,29.97,ESE,113,1.8,1.8,60,0.00,,,0.00,WUHU216HW,2013-10-11 08:22:00,
2013-10-11 01:27:00,54.2,40.6,29.97,ESE,113,1.3,1.8,60,0.00,,,0.00,WUHU216HW,2013-10-11 08:27:00,
2013-10-11 01:32:00,54.2,40.6,29.97,ESE,113,0.7,1.8,60,0.00,,,0.00,WUHU216HW,2013-10-11 08:32:00,
2013-10-11 01:37:00,54.0,40.5,29.97,ESE,113,0.9,1.8,60,0.00,,,0.00,WUHU216HW,2013-10-11 08:37:00,
2013-10-11 01:42:00,54.0,40.5,29.97,East,90,1.1,1.1,60,0.00,,,0.00,WUHU216HW,2013-10-11 08:42:00,
2013-10-11 01:47:00,53.8,40.3,29.97,East,90,0.9,1.3,60,0.00,,,0.00,WUHU216HW,2013-10-11 08:47:00,
2013-10-11 01:52:00,53.8,40.3,29.97,East,90,1.1,1.6,60,0.00,,,0.00,WUHU216HW,2013-10-11 08:52:00,
2013-10-11 01:57:00,53.6,40.5,29.97,East,90,0.4,1.6,61,0.00,,,0.00,WUHU216HW,2013-10-11 08:57:00,
2013-10-11 02:02:00,53.5,40.3,29.97,ENE,68,1.1,1.8,61,0.00,,,0.00,WUHU216HW,2013-10-11 09:02:00,
2013-10-11 02:07:00,53.5,40.3,29.97,East,90,1.1,1.8,61,0.00,,,0.00,WUHU216HW,2013-10-11 09:07:00,
2013-10-11 02:12:00,53.3,40.1,29.97,ENE,68,1.1,1.8,61,0.00,,,0.00,WUHU216HW,2013-10-11 09:12:00,
2013-10-11 02:17:00,53.3,40.6,29.97,ENE,68,1.1,1.8,62,0.00,,,0.00,WUHU216HW,2013-10-11 09:17:00,
2013-10-11 02:22:00,53.1,40.4,29.97,ENE,68,1.1,1.3,62,0.00,,,0.00,WUHU216HW,2013-10-11 09:22:00,
2013-10-11 02:27:00,53.1,40.4,29.96,ESE,113,1.1,1.8,62,0.00,,,0.00,WUHU216HW,2013-10-11 09:27:00,
2013-10-11 02:32:00,53.1,40.4,29.96,ESE,113,1.8,2.5,62,0.00,,,0.00,WUHU216HW,2013-10-11 09:32:00,
2013-10-11 02:37:00,52.9,40.2,29.96,East,90,1.1,2.5,62,0.00,,,0.00,WUHU216HW,2013-10-11 09:37:00,
2013-10-11 02:42:00,52.9,40.2,29.96,East,90,0.7,2.2,62,0.00,,,0.00,WUHU216HW,2013-10-11 09:42:00,
2013-10-11 02:47:00,52.9,40.2,29.96,ESE,113,3.4,3.4,62,0.00,,,0.00,WUHU216HW,2013-10-11 09:47:00,
2013-10-11 02:52:00,52.7,40.4,29.96,East,90,2.7,3.4,63,0.00,,,0.00,WUHU216HW,2013-10-11 09:52:00,
2013-10-11 02:57:00,52.6,40.3,29.96,ENE,68,2.7,3.8,63,0.00,,,0.00,WUHU216HW,2013-10-11 09:57:00,
2013-10-11 03:02:00,52.4,40.2,29.96,East,90,1.8,3.8,63,0.00,,,0.00,WUHU216HW,2013-10-11 10:02:00,
2013-10-11 03:07:00,52.2,40.0,29.96,East,90,4.0,4.0,63,0.00,,,0.00,WUHU216HW,2013-10-11 10:07:00,
2013-10-11 03:12:00,52.2,40.3,29.96,East,90,3.1,4.0,64,0.00,,,0.00,WUHU216HW,2013-10-11 10:12:00,
2013-10-11 03:17:00,52.2,40.3,29.95,East,90,3.6,4.0,64,0.00,,,0.00,WUHU216HW,2013-10-11 10:17:00,
2013-10-11 03:22:00,52.2,40.3,29.96,East,90,4.7,5.1,64,0.00,,,0.00,WUHU216HW,2013-10-11 10:22:00,
2013-10-11 03:27:00,52.2,40.3,29.95,East,90,5.4,6.5,64,0.00,,,0.00,WUHU216HW,2013-10-11 10:27:00,
2013-10-11 03:32:00,52.0,40.1,29.95,ENE,68,5.1,6.5,64,0.00,,,0.00,WUHU216HW,2013-10-11 10:32:00,
2013-10-11 03:37:00,52.0,40.1,29.96,ENE,68,3.8,6.9,64,0.00,,,0.00,WUHU216HW,2013-10-11 10:37:00,
2013-10-11 03:42:00,52.2,40.3,29.96,East,90,5.1,6.9,64,0.00,,,0.00,WUHU216HW,2013-10-11 10:42:00,
2013-10-11 03:47:00,52.2,40.3,29.96,East,90,3.4,5.4,64,0.00,,,0.00,WUHU216HW,2013-10-11 10:47:00,
2013-10-11 03:52:00,52.0,40.6,29.95,East,90,2.5,5.4,65,0.00,,,0.00,WUHU216HW,2013-10-11 10:52:00,
2013-10-11 03:57:00,52.0,40.6,29.95,ESE,113,4.0,5.6,65,0.00,,,0.00,WUHU216HW,2013-10-11 10:57:00,
2013-10-11 04:02:00,52.0,40.6,29.95,ENE,68,2.7,5.6,65,0.00,,,0.00,WUHU216HW,2013-10-11 11:02:00,
2013-10-11 04:07:00,52.0,40.6,29.95,ESE,113,2.5,4.9,65,0.00,,,0.00,WUHU216HW,2013-10-11 11:07:00,
2013-10-11 04:12:00,51.8,40.4,29.95,ESE,113,3.1,4.3,65,0.00,,,0.00,WUHU216HW,2013-10-11 11:12:00,
2013-10-11 04:17:00,51.7,40.2,29.96,ESE,113,3.8,4.3,65,0.00,,,0.00,WUHU216HW,2013-10-11 11:17:00,
2013-10-11 04:22:00,51.7,40.2,29.96,ESE,113,3.4,4.7,65,0.00,,,0.00,WUHU216HW,2013-10-11 11:22:00,
2013-10-11 04:27:00,51.7,40.2,29.96,East,90,4.0,4.7,65,0.00,,,0.00,WUHU216HW,2013-10-11 11:27:00,
2013-10-11 04:32:00,51.7,40.2,29.96,East,90,3.4,4.7,65,0.00,,,0.00,WUHU216HW,2013-10-11 11:32:00,
2013-10-11 04:37:00,51.7,40.7,29.96,East,90,3.4,4.5,66,0.00,,,0.00,WUHU216HW,2013-10-11 11:37:00,
2013-10-11 04:42:00,51.8,40.9,29.96,East,90,3.4,4.5,66,0.00,,,0.00,WUHU216HW,2013-10-11 11:42:00,
2013-10-11 04:47:00,51.7,40.7,29.96,East,90,2.2,4.5,66,0.00,,,0.00,WUHU216HW,2013-10-11 11:47:00,
2013-10-11 04:52:00,51.7,40.2,29.96,East,90,2.0,4.5,65,0.00,,,0.00,WUHU216HW,2013-10-11 11:52:00,
2013-10-11 04:57:00,51.7,40.2,29.96,ENE,68,1.8,3.6,65,0.00,,,0.00,WUHU216HW,2013-10-11 11:57:00,
2013-10-11 05:02:00,51.7,40.7,29.96,ENE,68,2.7,3.8,66,0.00,,,0.00,WUHU216HW,2013-10-11 12:02:00,
2013-10-11 05:07:00,51.5,40.5,29.96,ESE,113,3.4,4.0,66,0.00,,,0.00,WUHU216HW,2013-10-11 12:07:00,
2013-10-11 05:12:00,51.5,40.5,29.96,East,90,2.5,4.0,66,0.00,,,0.00,WUHU216HW,2013-10-11 12:12:00,
2013-10-11 05:17:00,51.5,40.5,29.96,ENE,68,3.4,4.7,66,0.00,,,0.00,WUHU216HW,2013-10-11 12:17:00,
2013-10-11 05:22:00,51.3,40.3,29.96,ENE,68,1.8,4.7,66,0.00,,,0.00,WUHU216HW,2013-10-11 12:22:00,
2013-10-11 05:27:00,51.3,40.3,29.97,East,90,2.0,4.5,66,0.00,,,0.00,WUHU216HW,2013-10-11 12:27:00,
2013-10-11 05:32:00,51.3,40.3,29.97,ENE,68,1.8,3.6,66,0.00,,,0.00,WUHU216HW,2013-10-11 12:32:00,
2013-10-11 05:37:00,51.1,40.2,29.96,ENE,68,1.6,2.7,66,0.00,,,0.00,WUHU216HW,2013-10-11 12:37:00,
2013-10-11 05:42:00,50.9,40.0,29.96,East,90,2.0,2.7,66,0.00,,,0.00,WUHU216HW,2013-10-11 12:42:00,
2013-10-11 05:47:00,50.9,40.0,29.96,ENE,68,2.2,3.4,66,0.00,,,0.00,WUHU216HW,2013-10-11 12:47:00,
2013-10-11 05:52:00,50.8,39.8,29.96,East,90,2.5,3.8,66,0.00,,,0.00,WUHU216HW,2013-10-11 12:52:00,
2013-10-11 05:57:00,50.9,40.0,29.97,East,90,1.8,3.8,66,0.00,,,0.00,WUHU216HW,2013-10-11 12:57:00,
2013-10-11 06:02:00,50.8,39.8,29.97,ESE,113,2.9,4.3,66,0.00,,,0.00,WUHU216HW,2013-10-11 13:02:00,
2013-10-11 06:07:00,50.8,40.2,29.97,ESE,113,2.7,4.3,67,0.00,,,0.00,WUHU216HW,2013-10-11 13:07:00,
2013-10-11 06:12:00,50.8,40.2,29.96,ESE,113,3.6,4.3,67,0.00,,,0.00,WUHU216HW,2013-10-11 13:12:00,
2013-10-11 06:17:00,50.8,40.2,29.96,ESE,113,2.5,4.7,67,0.00,,,0.00,WUHU216HW,2013-10-11 13:17:00,
2013-10-11 06:22:00,50.8,40.2,29.96,East,90,3.1,4.7,67,0.00,,,0.00,WUHU216HW,2013-10-11 13:22:00,
2013-10-11 06:27:00,50.6,40.1,29.96,ENE,68,3.4,4.7,67,0.00,,,0.00,WUHU216HW,2013-10-11 13:27:00,
2013-10-11 06:32:00,50.4,39.4,29.97,ESE,113,2.7,4.7,66,0.00,,,0.00,WUHU216HW,2013-10-11 13:32:00,
2013-10-11 06:37:00,50.4,39.4,29.97,East,90,2.7,4.3,66,0.00,,,0.00,WUHU216HW,2013-10-11 13:37:00,
2013-10-11 06:42:00,50.4,39.4,29.97,ESE,113,2.9,4.0,66,0.00,,,0.00,WUHU216HW,2013-10-11 13:42:00,
2013-10-11 06:47:00,50.4,39.4,29.96,ENE,68,2.7,4.0,66,0.00,,,0.00,WUHU216HW,2013-10-11 13:47:00,
2013-10-11 06:52:00,50.6,40.1,29.97,East,90,2.7,4.0,67,0.00,,,0.00,WUHU216HW,2013-10-11 13:52:00,
2013-10-11 06:57:00,50.8,40.6,29.97,East,90,3.4,4.7,68,0.00,,,0.00,WUHU216HW,2013-10-11 13:57:00,
2013-10-11 07:02:00,50.8,40.6,29.97,ESE,113,3.8,4.7,68,0.00,,,0.00,WUHU216HW,2013-10-11 14:02:00,
2013-10-11 07:07:00,51.1,40.5,29.97,SSE,158,2.5,4.0,67,0.00,,,0.00,WUHU216HW,2013-10-11 14:07:00,
2013-10-11 07:12:00,51.3,40.7,29.97,SE,135,1.3,3.8,67,0.00,,,0.00,WUHU216HW,2013-10-11 14:12:00,
2013-10-11 07:17:00,51.5,40.9,29.97,ESE,113,1.1,3.4,67,0.00,,,0.00,WUHU216HW,2013-10-11 14:17:00,
2013-10-11 07:22:00,51.5,40.9,29.97,SE,135,1.8,3.4,67,0.00,,,0.00,WUHU216HW,2013-10-11 14:22:00,
2013-10-11 07:27:00,51.7,41.0,29.98,SE,135,1.6,3.4,67,0.00,,,0.00,WUHU216HW,2013-10-11 14:27:00,
2013-10-11 07:32:00,51.8,41.2,29.98,ESE,113,0.9,2.2,67,0.00,,,0.00,WUHU216HW,2013-10-11 14:32:00,
2013-10-11 07:37:00,52.0,41.4,29.98,SSE,158,1.6,2.2,67,0.00,,,0.00,WUHU216HW,2013-10-11 14:37:00,
2013-10-11 07:42:00,52.2,41.1,29.98,South,180,0.2,2.2,66,0.00,,,0.00,WUHU216HW,2013-10-11 14:42:00,
2013-10-11 07:47:00,52.4,41.3,29.98,East,90,0.9,2.5,66,0.00,,,0.00,WUHU216HW,2013-10-11 14:47:00,
2013-10-11 07:52:00,52.6,41.5,29.98,SW,225,1.1,2.5,66,0.00,,,0.00,WUHU216HW,2013-10-11 14:52:00,
2013-10-11 07:57:00,52.9,41.4,29.98,SW,225,0.7,1.8,65,0.00,,,0.00,WUHU216HW,2013-10-11 14:57:00,
2013-10-11 08:02:00,53.3,41.8,29.98,WSW,248,1.8,1.8,65,0.00,,,0.00,WUHU216HW,2013-10-11 15:02:00,
2013-10-11 08:07:00,53.8,41.9,29.98,SSW,203,1.1,2.7,64,0.00,,,0.00,WUHU216HW,2013-10-11 15:07:00,
2013-10-11 08:12:00,54.2,42.2,29.99,WSW,248,1.6,2.9,64,0.00,,,0.00,WUHU216HW,2013-10-11 15:12:00,
2013-10-11 08:17:00,54.5,42.6,29.99,SW,225,2.7,2.9,64,0.00,,,0.00,WUHU216HW,2013-10-11 15:17:00,
2013-10-11 08:22:00,54.9,42.5,29.99,West,270,1.8,2.9,63,0.00,,,0.00,WUHU216HW,2013-10-11 15:22:00,
2013-10-11 08:27:00,55.1,42.3,29.99,SSW,203,2.2,2.9,62,0.00,,,0.00,WUHU216HW,2013-10-11 15:27:00,
2013-10-11 08:32:00,55.3,42.4,29.99,SSW,203,1.1,3.4,62,0.00,,,0.00,WUHU216HW,2013-10-11 15:32:00,
2013-10-11 08:37:00,55.4,42.6,29.99,SW,225,1.8,3.4,62,0.00,,,0.00,WUHU216HW,2013-10-11 15:37:00,
2013-10-11 08:42:00,55.6,42.4,29.99,WSW,248,1.8,2.7,61,0.00,,,0.00,WUHU216HW,2013-10-11 15:42:00,
2013-10-11 08:47:00,56.0,42.8,29.99,West,270,2.5,2.7,61,0.00,,,0.00,WUHU216HW,2013-10-11 15:47:00,
2013-10-11 08:52:00,56.3,42.7,29.99,SW,225,2.5,2.5,60,0.00,,,0.00,WUHU216HW,2013-10-11 15:52:00,
2013-10-11 08:57:00,56.7,43.0,29.99,SW,225,1.1,3.1,60,0.00,,,0.00,WUHU216HW,2013-10-11 15:57:00,
2013-10-11 09:02:00,57.1,42.9,29.99,SW,225,1.1,3.1,59,0.00,,,0.00,WUHU216HW,2013-10-11 16:02:00,
2013-10-11 09:07:00,57.2,43.1,29.99,SE,135,1.3,3.4,59,0.00,,,0.00,WUHU216HW,2013-10-11 16:07:00,
2013-10-11 09:12:00,57.6,43.4,29.99,WSW,248,1.8,3.4,59,0.00,,,0.00,WUHU216HW,2013-10-11 16:12:00,
2013-10-11 09:17:00,58.0,43.3,29.99,SW,225,1.8,4.7,58,0.00,,,0.00,WUHU216HW,2013-10-11 16:17:00,
2013-10-11 09:22:00,58.7,43.9,29.99,West,270,3.6,5.6,58,0.00,,,0.00,WUHU216HW,2013-10-11 16:22:00,
2013-10-11 09:27:00,59.2,43.9,29.99,WNW,293,3.1,5.6,57,0.00,,,0.00,WUHU216HW,2013-10-11 16:27:00,
2013-10-11 09:32:00,59.8,44.0,29.99,SSW,203,4.3,5.4,56,0.00,,,0.00,WUHU216HW,2013-10-11 16:32:00,
2013-10-11 09:37:00,60.1,43.8,30.00,NNW,338,3.1,5.4,55,0.00,,,0.00,WUHU216HW,2013-10-11 16:37:00,
2013-10-11 09:42:00,60.5,43.8,29.99,WSW,248,3.4,5.8,54,0.00,,,0.00,WUHU216HW,2013-10-11 16:42:00,
2013-10-11 09:47:00,60.8,44.1,29.99,West,270,3.4,6.3,54,0.00,,,0.00,WUHU216HW,2013-10-11 16:47:00,
2013-10-11 09:52:00,61.0,43.3,29.99,West,270,5.1,7.2,52,0.00,,,0.00,WUHU216HW,2013-10-11 16:52:00,
2013-10-11 09:57:00,61.2,43.4,29.99,WSW,248,3.4,7.2,52,0.00,,,0.00,WUHU216HW,2013-10-11 16:57:00,
2013-10-11 10:02:00,61.6,43.3,29.99,West,270,6.7,6.7,51,0.00,,,0.00,WUHU216HW,2013-10-11 17:02:00,
2013-10-11 10:07:00,61.7,43.4,30.00,SW,225,2.9,6.7,51,0.00,,,0.00,WUHU216HW,2013-10-11 17:07:00,
2013-10-11 10:12:00,62.1,43.7,30.00,SSW,203,2.7,7.4,51,0.00,,,0.00,WUHU216HW,2013-10-11 17:12:00,
2013-10-11 10:17:00,62.5,43.6,30.00,NW,315,2.7,7.4,50,0.00,,,0.00,WUHU216HW,2013-10-11 17:17:00,
2013-10-11 10:22:00,63.0,44.1,30.00,WSW,248,3.4,6.3,50,0.00,,,0.00,WUHU216HW,2013-10-11 17:22:00,
2013-10-11 10:27:00,63.4,43.8,30.00,WNW,293,4.3,7.8,49,0.00,,,0.00,WUHU216HW,2013-10-11 17:27:00,
2013-10-11 10:32:00,63.9,43.8,29.99,West,270,3.4,7.8,48,0.00,,,0.00,WUHU216HW,2013-10-11 17:32:00,
2013-10-11 10:37:00,64.3,43.5,29.99,WSW,248,6.5,6.7,47,0.00,,,0.00,WUHU216HW,2013-10-11 17:37:00,
2013-10-11 10:42:00,64.4,43.7,29.99,WSW,248,3.6,6.7,47,0.00,,,0.00,WUHU216HW,2013-10-11 17:42:00,
2013-10-11 10:47:00,64.8,43.4,29.99,West,270,5.4,9.2,46,0.00,,,0.00,WUHU216HW,2013-10-11 17:47:00,
2013-10-11 10:52:00,65.2,43.2,29.99,West,270,3.4,9.2,45,0.00,,,0.00,WUHU216HW,2013-10-11 17:52:00,
2013-10-11 10:57:00,65.5,42.9,29.99,WNW,293,6.0,8.9,44,0.00,,,0.00,WUHU216HW,2013-10-11 17:57:00,
2013-10-11 11:02:00,65.9,43.8,29.99,SSW,203,5.4,8.5,45,0.00,,,0.00,WUHU216HW,2013-10-11 18:02:00,
2013-10-11 11:07:00,66.2,43.6,29.99,NW,315,4.7,9.8,44,0.00,,,0.00,WUHU216HW,2013-10-11 18:07:00,
2013-10-11 11:12:00,66.6,43.3,29.99,West,270,4.5,9.8,43,0.00,,,0.00,WUHU216HW,2013-10-11 18:12:00,
2013-10-11 11:17:00,66.8,43.5,29.99,West,270,4.7,9.2,43,0.00,,,0.00,WUHU216HW,2013-10-11 18:17:00,
2013-10-11 11:22:00,67.0,43.7,29.98,NNW,338,1.8,9.2,43,0.00,,,0.00,WUHU216HW,2013-10-11 18:22:00,
2013-10-11 11:27:00,67.0,43.7,29.98,West,270,4.0,6.9,43,0.00,,,0.00,WUHU216HW,2013-10-11 18:27:00,
2013-10-11 11:32:00,67.3,44.0,29.98,SSW,203,6.5,6.9,43,0.00,,,0.00,WUHU216HW,2013-10-11 18:32:00,
2013-10-11 11:37:00,67.7,43.8,29.98,SSW,203,2.0,7.6,42,0.00,,,0.00,WUHU216HW,2013-10-11 18:37:00,
2013-10-11 11:42:00,68.2,44.8,29.98,WSW,248,4.9,9.6,43,0.00,,,0.00,WUHU216HW,2013-10-11 18:42:00,
2013-10-11 11:47:00,68.4,44.4,29.98,SSE,158,2.2,9.6,42,0.00,,,0.00,WUHU216HW,2013-10-11 18:47:00,
2013-10-11 11:52:00,68.8,44.6,29.98,WSW,248,2.5,7.8,42,0.00,,,0.00,WUHU216HW,2013-10-11 18:52:00,
2013-10-11 11:57:00,68.6,44.6,29.98,NW,315,2.9,7.8,42,0.00,,,0.00,WUHU216HW,2013-10-11 18:57:00,
2013-10-11 12:02:00,68.6,44.6,29.98,North,0,2.0,8.5,42,0.00,,,0.00,WUHU216HW,2013-10-11 19:02:00,
2013-10-11 12:07:00,68.9,44.3,29.98,West,270,4.5,8.5,41,0.00,,,0.00,WUHU216HW,2013-10-11 19:07:00,
2013-10-11 12:12:00,69.3,44.6,29.97,WSW,248,7.4,7.4,41,0.00,,,0.00,WUHU216HW,2013-10-11 19:12:00,
2013-10-11 12:17:00,69.5,44.1,29.97,WNW,293,2.5,7.4,40,0.00,,,0.00,WUHU216HW,2013-10-11 19:17:00,
2013-10-11 12:22:00,69.5,44.1,29.97,NW,315,4.0,7.8,40,0.00,,,0.00,WUHU216HW,2013-10-11 19:22:00,
2013-10-11 12:27:00,69.5,44.1,29.97,NW,315,3.4,7.8,40,0.00,,,0.00,WUHU216HW,2013-10-11 19:27:00,
2013-10-11 12:32:00,69.5,44.1,29.97,SE,135,1.6,6.7,40,0.00,,,0.00,WUHU216HW,2013-10-11 19:32:00,
2013-10-11 12:37:00,69.8,45.1,29.97,SW,225,4.5,7.6,41,0.00,,,0.00,WUHU216HW,2013-10-11 19:37:00,
2013-10-11 12:42:00,70.6,45.1,29.96,WSW,248,4.0,7.6,40,0.00,,,0.00,WUHU216HW,2013-10-11 19:42:00,
2013-10-11 12:47:00,70.6,44.4,29.96,ENE,68,3.4,7.8,39,0.00,,,0.00,WUHU216HW,2013-10-11 19:47:00,
2013-10-11 12:52:00,71.1,44.8,29.96,West,270,2.7,7.8,39,0.00,,,0.00,WUHU216HW,2013-10-11 19:52:00,
2013-10-11 12:57:00,70.9,43.9,29.96,West,270,7.6,9.8,38,0.00,,,0.00,WUHU216HW,2013-10-11 19:57:00,
2013-10-11 13:02:00,71.1,44.1,29.95,SW,225,3.1,9.8,38,0.00,,,0.00,WUHU216HW,2013-10-11 20:02:00,
2013-10-11 13:07:00,71.8,44.7,29.95,West,270,6.5,8.5,38,0.00,,,0.00,WUHU216HW,2013-10-11 20:07:00,
2013-10-11 13:12:00,72.0,44.2,29.95,West,270,4.0,6.7,37,0.00,,,0.00,WUHU216HW,2013-10-11 20:12:00,
2013-10-11 13:17:00,72.2,44.4,29.95,SW,225,4.7,6.7,37,0.00,,,0.00,WUHU216HW,2013-10-11 20:17:00,
2013-10-11 13:22:00,72.9,45.0,29.95,West,270,4.5,8.3,37,0.00,,,0.00,WUHU216HW,2013-10-11 20:22:00,
2013-10-11 13:27:00,73.6,45.6,29.95,WSW,248,6.0,8.3,37,0.00,,,0.00,WUHU216HW,2013-10-11 20:27:00,
2013-10-11 13:32:00,73.4,43.2,29.95,WSW,248,6.3,8.5,34,0.00,,,0.00,WUHU216HW,2013-10-11 20:32:00,
2013-10-11 13:37:00,73.6,43.3,29.95,WNW,293,5.8,8.5,34,0.00,,,0.00,WUHU216HW,2013-10-11 20:37:00,
2013-10-11 13:42:00,73.1,42.8,29.95,WSW,248,4.9,8.5,34,0.00,,,0.00,WUHU216HW,2013-10-11 20:42:00,
2013-10-11 13:47:00,73.1,42.8,29.95,NNW,338,2.0,8.5,34,0.00,,,0.00,WUHU216HW,2013-10-11 20:47:00,
2013-10-11 13:52:00,73.1,42.8,29.95,SW,225,2.7,8.1,34,0.00,,,0.00,WUHU216HW,2013-10-11 20:52:00,
2013-10-11 13:57:00,73.4,42.4,29.95,WSW,248,8.7,9.6,33,0.00,,,0.00,WUHU216HW,2013-10-11 20:57:00,
2013-10-11 14:02:00,73.6,42.6,29.95,West,270,5.6,10.5,33,0.00,,,0.00,WUHU216HW,2013-10-11 21:02:00,
2013-10-11 14:07:00,73.8,42.8,29.95,NW,315,4.9,10.5,33,0.00,,,0.00,WUHU216HW,2013-10-11 21:07:00,
2013-10-11 14:12:00,73.8,42.8,29.95,WNW,293,6.3,10.1,33,0.00,,,0.00,WUHU216HW,2013-10-11 21:12:00,
2013-10-11 14:17:00,73.8,41.9,29.95,West,270,8.5,10.3,32,0.00,,,0.00,WUHU216HW,2013-10-11 21:17:00,
2013-10-11 14:22:00,73.6,41.9,29.95,WNW,293,5.1,11.6,32,0.00,,,0.00,WUHU216HW,2013-10-11 21:22:00,
2013-10-11 14:27:00,74.0,42.1,29.95,WNW,293,6.0,11.6,32,0.00,,,0.00,WUHU216HW,2013-10-11 21:27:00,
2013-10-11 14:32:00,74.0,42.1,29.95,NW,315,5.4,11.0,32,0.00,,,0.00,WUHU216HW,2013-10-11 21:32:00,
2013-10-11 14:37:00,74.2,41.6,29.95,NW,315,4.7,10.3,31,0.00,,,0.00,WUHU216HW,2013-10-11 21:37:00,
2013-10-11 14:42:00,74.3,41.7,29.95,West,270,7.2,8.1,31,0.00,,,0.00,WUHU216HW,2013-10-11 21:42:00,
2013-10-11 14:47:00,74.5,41.1,29.95,West,270,7.2,10.3,30,0.00,,,0.00,WUHU216HW,2013-10-11 21:47:00,
2013-10-11 14:52:00,74.9,41.4,29.95,West,270,6.5,10.3,30,0.00,,,0.00,WUHU216HW,2013-10-11 21:52:00,
2013-10-11 14:57:00,75.2,41.8,29.95,West,270,6.9,8.5,30,0.00,,,0.00,WUHU216HW,2013-10-11 21:57:00,
2013-10-11 15:02:00,75.6,42.1,29.95,WSW,248,5.6,8.5,30,0.00,,,0.00,WUHU216HW,2013-10-11 22:02:00,
2013-10-11 15:07:00,75.8,41.2,29.95,WSW,248,4.7,10.5,29,0.00,,,0.00,WUHU216HW,2013-10-11 22:07:00,
2013-10-11 15:12:00,75.6,41.0,29.95,West,270,4.7,10.5,29,0.00,,,0.00,WUHU216HW,2013-10-11 22:12:00,
2013-10-11 15:17:00,76.0,41.4,29.95,WNW,293,5.4,9.2,29,0.00,,,0.00,WUHU216HW,2013-10-11 22:17:00,
2013-10-11 15:22:00,76.0,41.4,29.95,WSW,248,6.7,10.1,29,0.00,,,0.00,WUHU216HW,2013-10-11 22:22:00,
2013-10-11 15:27:00,75.8,40.1,29.95,WSW,248,8.5,10.1,28,0.00,,,0.00,WUHU216HW,2013-10-11 22:27:00,
2013-10-11 15:32:00,76.0,41.4,29.95,West,270,6.7,8.5,29,0.00,,,0.00,WUHU216HW,2013-10-11 22:32:00,
2013-10-11 15:37:00,75.8,40.1,29.95,SW,225,4.7,9.2,28,0.00,,,0.00,WUHU216HW,2013-10-11 22:37:00,
2013-10-11 15:42:00,75.6,40.1,29.95,NW,315,6.5,9.2,28,0.00,,,0.00,WUHU216HW,2013-10-11 22:42:00,
2013-10-11 15:47:00,75.4,40.9,29.95,NNW,338,5.1,9.2,29,0.00,,,0.00,WUHU216HW,2013-10-11 22:47:00,
2013-10-11 15:52:00,75.6,40.1,29.95,WSW,248,4.9,7.6,28,0.00,,,0.00,WUHU216HW,2013-10-11 22:52:00,
2013-10-11 15:57:00,76.1,40.5,29.95,WSW,248,4.7,7.4,28,0.00,,,0.00,WUHU216HW,2013-10-11 22:57:00,
2013-10-11 16:02:00,76.0,40.3,29.95,WSW,248,6.9,10.3,28,0.00,,,0.00,WUHU216HW,2013-10-11 23:02:00,
2013-10-11 16:07:00,76.0,39.3,29.95,SW,225,3.4,10.3,27,0.00,,,0.00,WUHU216HW,2013-10-11 23:07:00,
2013-10-11 16:12:00,76.3,40.7,29.95,West,270,3.8,9.8,28,0.00,,,0.00,WUHU216HW,2013-10-11 23:12:00,
2013-10-11 16:17:00,76.3,38.6,29.95,West,270,9.2,9.8,26,0.00,,,0.00,WUHU216HW,2013-10-11 23:17:00,
2013-10-11 16:22:00,75.8,40.1,29.95,WSW,248,6.3,9.8,28,0.00,,,0.00,WUHU216HW,2013-10-11 23:22:00,
2013-10-11 16:27:00,76.0,38.3,29.95,West,270,6.9,9.8,26,0.00,,,0.00,WUHU216HW,2013-10-11 23:27:00,
2013-10-11 16:32:00,75.8,38.2,29.95,West,270,7.2,10.5,26,0.00,,,0.00,WUHU216HW,2013-10-11 23:32:00,
2013-10-11 16:37:00,75.6,40.1,29.95,West,270,5.8,10.5,28,0.00,,,0.00,WUHU216HW,2013-10-11 23:37:00,
2013-10-11 16:42:00,75.4,39.9,29.95,West,270,7.4,9.8,28,0.00,,,0.00,WUHU216HW,2013-10-11 23:42:00,
2013-10-11 16:47:00,75.4,38.9,29.95,WNW,293,6.3,8.7,27,0.00,,,0.00,WUHU216HW,2013-10-11 23:47:00,
2013-10-11 16:52:00,75.2,39.7,29.95,WSW,248,6.9,9.6,28,0.00,,,0.00,WUHU216HW,2013-10-11 23:52:00,
2013-10-11 16:57:00,75.1,39.5,29.95,West,270,6.7,9.6,28,0.00,,,0.00,WUHU216HW,2013-10-11 23:57:00,
2013-10-11 17:02:00,75.1,39.5,29.95,West,270,6.9,10.7,28,0.00,,,0.00,WUHU216HW,2013-10-12 00:02:00,
2013-10-11 17:07:00,74.7,39.3,29.95,West,270,7.6,10.7,28,0.00,,,0.00,WUHU216HW,2013-10-12 00:07:00,
2013-10-11 17:12:00,74.3,38.9,29.95,NNW,338,6.9,8.9,28,0.00,,,0.00,WUHU216HW,2013-10-12 00:12:00,
2013-10-11 17:17:00,74.0,38.6,29.94,West,270,6.3,9.2,28,0.00,,,0.00,WUHU216HW,2013-10-12 00:17:00,
2013-10-11 17:22:00,73.6,38.3,29.94,West,270,9.6,10.5,28,0.00,,,0.00,WUHU216HW,2013-10-12 00:22:00,
2013-10-11 17:27:00,73.1,37.8,29.93,WSW,248,6.3,10.5,28,0.00,,,0.00,WUHU216HW,2013-10-12 00:27:00,
2013-10-11 17:32:00,72.5,38.4,29.93,WNW,293,8.3,11.4,29,0.00,,,0.00,WUHU216HW,2013-10-12 00:32:00,
2013-10-11 17:37:00,72.0,38.0,29.93,SW,225,7.8,11.4,29,0.00,,,0.00,WUHU216HW,2013-10-12 00:37:00,
2013-10-11 17:42:00,71.6,37.7,29.93,West,270,8.3,10.7,29,0.00,,,0.00,WUHU216HW,2013-10-12 00:42:00,
2013-10-11 17:47:00,71.1,38.3,29.93,WSW,248,9.4,10.7,30,0.00,,,0.00,WUHU216HW,2013-10-12 00:47:00,
2013-10-11 17:52:00,70.6,37.7,29.93,WNW,293,11.9,11.9,30,0.00,,,0.00,WUHU216HW,2013-10-12 00:52:00,
2013-10-11 17:57:00,70.0,37.3,29.93,West,270,6.9,11.9,30,0.00,,,0.00,WUHU216HW,2013-10-12 00:57:00,
2013-10-11 18:02:00,69.5,36.7,29.93,WSW,248,7.6,11.9,30,0.00,,,0.00,WUHU216HW,2013-10-12 01:02:00,
2013-10-11 18:07:00,69.1,37.2,29.93,WSW,248,6.9,9.6,31,0.00,,,0.00,WUHU216HW,2013-10-12 01:07:00,
2013-10-11 18:12:00,68.9,37.0,29.93,WNW,293,8.1,9.8,31,0.00,,,0.00,WUHU216HW,2013-10-12 01:12:00,
2013-10-11 18:17:00,68.6,36.7,29.93,WNW,293,9.2,10.5,31,0.00,,,0.00,WUHU216HW,2013-10-12 01:17:00,
2013-10-11 18:22:00,68.4,37.3,29.93,NW,315,6.7,10.5,32,0.00,,,0.00,WUHU216HW,2013-10-12 01:22:00,
2013-10-11 18:27:00,68.2,37.1,29.93,West,270,6.9,11.6,32,0.00,,,0.00,WUHU216HW,2013-10-12 01:27:00,
2013-10-11 18:32:00,68.0,36.9,29.93,WNW,293,7.6,11.6,32,0.00,,,0.00,WUHU216HW,2013-10-12 01:32:00,
2013-10-11 18:37:00,67.9,36.8,29.93,West,270,7.8,11.4,32,0.00,,,0.00,WUHU216HW,2013-10-12 01:37:00,
2013-10-11 18:42:00,67.5,36.5,29.94,WNW,293,11.0,11.4,32,0.00,,,0.00,WUHU216HW,2013-10-12 01:42:00,
2013-10-11 18:47:00,67.3,36.4,29.94,West,270,9.4,11.0,32,0.00,,,0.00,WUHU216HW,2013-10-12 01:47:00,
2013-10-11 18:52:00,67.1,36.2,29.93,West,270,5.6,11.0,32,0.00,,,0.00,WUHU216HW,2013-10-12 01:52:00,
2013-10-11 18:57:00,67.0,36.8,29.93,NW,315,7.4,10.7,33,0.00,,,0.00,WUHU216HW,2013-10-12 01:57:00,
2013-10-11 19:02:00,67.0,36.8,29.93,NW,315,6.5,9.8,33,0.00,,,0.00,WUHU216HW,2013-10-12 02:02:00,
2013-10-11 19:07:00,66.8,36.6,29.93,North,0,5.1,8.7,33,0.00,,,0.00,WUHU216HW,2013-10-12 02:07:00,
2013-10-11 19:12:00,66.6,36.5,29.93,West,270,4.0,7.6,33,0.00,,,0.00,WUHU216HW,2013-10-12 02:12:00,
2013-10-11 19:17:00,66.4,36.4,29.94,NNW,338,0.9,6.9,33,0.00,,,0.00,WUHU216HW,2013-10-12 02:17:00,
2013-10-11 19:22:00,66.2,36.2,29.94,West,270,2.7,5.4,33,0.00,,,0.00,WUHU216HW,2013-10-12 02:22:00,
2013-10-11 19:27:00,65.9,36.5,29.94,WNW,293,1.1,4.9,34,0.00,,,0.00,WUHU216HW,2013-10-12 02:27:00,
2013-10-11 19:32:00,65.7,35.7,29.94,NW,315,1.1,2.5,33,0.00,,,0.00,WUHU216HW,2013-10-12 02:32:00,
2013-10-11 19:37:00,65.5,35.6,29.93,NNE,23,2.5,2.5,33,0.00,,,0.00,WUHU216HW,2013-10-12 02:37:00,
2013-10-11 19:42:00,65.2,35.2,29.94,East,90,2.9,2.9,33,0.00,,,0.00,WUHU216HW,2013-10-12 02:42:00,
2013-10-11 19:47:00,64.8,35.7,29.94,ENE,68,2.5,4.0,34,0.00,,,0.00,WUHU216HW,2013-10-12 02:47:00,
2013-10-11 19:52:00,64.6,35.5,29.94,East,90,3.4,4.0,34,0.00,,,0.00,WUHU216HW,2013-10-12 02:52:00,
2013-10-11 19:57:00,64.4,35.3,29.94,ESE,113,2.9,3.8,34,0.00,,,0.00,WUHU216HW,2013-10-12 02:57:00,
2013-10-11 20:02:00,64.1,34.9,29.93,East,90,4.7,4.7,34,0.00,,,0.00,WUHU216HW,2013-10-12 03:02:00,
2013-10-11 20:07:00,64.1,35.6,29.93,SSE,158,4.0,4.7,35,0.00,,,0.00,WUHU216HW,2013-10-12 03:07:00,
2013-10-11 20:12:00,63.7,36.1,29.93,East,90,3.6,5.1,36,0.00,,,0.00,WUHU216HW,2013-10-12 03:12:00,
2013-10-11 20:17:00,63.7,36.1,29.93,East,90,2.5,5.1,36,0.00,,,0.00,WUHU216HW,2013-10-12 03:17:00,
2013-10-11 20:22:00,63.4,35.7,29.93,ESE,113,3.1,4.3,36,0.00,,,0.00,WUHU216HW,2013-10-12 03:22:00,
2013-10-11 20:27:00,63.2,35.6,29.93,ESE,113,1.8,4.0,36,0.00,,,0.00,WUHU216HW,2013-10-12 03:27:00,
2013-10-11 20:32:00,62.8,35.3,29.93,East,90,2.2,3.4,36,0.00,,,0.00,WUHU216HW,2013-10-12 03:32:00,
2013-10-11 20:37:00,62.3,35.5,29.93,ESE,113,0.4,2.7,37,0.00,,,0.00,WUHU216HW,2013-10-12 03:37:00,
2013-10-11 20:42:00,62.1,35.4,29.94,NW,315,0.4,2.5,37,0.00,,,0.00,WUHU216HW,2013-10-12 03:42:00,
2013-10-11 20:47:00,61.9,35.2,29.94,NW,315,0.0,0.9,37,0.00,,,0.00,WUHU216HW,2013-10-12 03:47:00,
2013-10-11 20:52:00,61.7,35.7,29.94,ESE,113,2.7,2.7,38,0.00,,,0.00,WUHU216HW,2013-10-12 03:52:00,
2013-10-11 20:57:00,61.6,35.6,29.94,SE,135,0.4,2.7,38,0.00,,,0.00,WUHU216HW,2013-10-12 03:57:00,
2013-10-11 21:01:00,61.6,35.6,29.95,SE,135,0.0,2.7,38,0.00,,,0.00,WUHU216HW,2013-10-12 04:01:00,
2013-10-11 21:02:00,61.4,35.4,29.94,East,90,0.7,2.7,38,0.00,,,0.00,WUHU216HW,2013-10-12 04:02:00,
2013-10-11 21:07:00,61.2,35.3,29.95,ESE,113,1.1,2.0,38,0.00,,,0.00,WUHU216HW,2013-10-12 04:07:00,
2013-10-11 21:12:00,61.2,35.3,29.95,ESE,113,0.4,4.3,38,0.00,,,0.00,WUHU216HW,2013-10-12 04:12:00,
2013-10-11 21:17:00,61.0,35.8,29.95,East,90,1.8,4.3,39,0.00,,,0.00,WUHU216HW,2013-10-12 04:17:00,
2013-10-11 21:22:00,60.8,35.6,29.95,ESE,113,3.6,3.6,39,0.00,,,0.00,WUHU216HW,2013-10-12 04:22:00,
2013-10-11 21:27:00,60.8,35.6,29.95,NNW,338,2.5,3.6,39,0.00,,,0.00,WUHU216HW,2013-10-12 04:27:00,
2013-10-11 21:32:00,61.2,36.0,29.95,NNW,338,1.8,3.6,39,0.00,,,0.00,WUHU216HW,2013-10-12 04:32:00,
2013-10-11 21:37:00,61.6,36.3,29.95,NNW,338,4.9,5.6,39,0.00,,,0.00,WUHU216HW,2013-10-12 04:37:00,
2013-10-11 21:42:00,61.7,36.5,29.95,NW,315,3.6,5.6,39,0.00,,,0.00,WUHU216HW,2013-10-12 04:42:00,
2013-10-11 21:47:00,61.9,35.9,29.95,NW,315,2.2,5.6,38,0.00,,,0.00,WUHU216HW,2013-10-12 04:47:00,
2013-10-11 21:52:00,61.9,35.9,29.95,West,270,1.1,4.0,38,0.00,,,0.00,WUHU216HW,2013-10-12 04:52:00,
2013-10-11 21:57:00,61.7,35.7,29.95,SSE,158,0.4,3.6,38,0.00,,,0.00,WUHU216HW,2013-10-12 04:57:00,
2013-10-11 22:02:00,61.4,35.4,29.96,SSW,203,0.4,2.2,38,0.00,,,0.00,WUHU216HW,2013-10-12 05:02:00,
2013-10-11 22:07:00,60.8,35.6,29.96,SW,225,0.4,1.3,39,0.00,,,0.00,WUHU216HW,2013-10-12 05:07:00,
2013-10-11 22:12:00,60.7,35.5,29.96,SE,135,0.9,1.1,39,0.00,,,0.00,WUHU216HW,2013-10-12 05:12:00,
2013-10-11 22:17:00,60.3,35.2,29.96,ENE,68,2.0,2.0,39,0.00,,,0.00,WUHU216HW,2013-10-12 05:17:00,
2013-10-11 22:22:00,60.1,35.7,29.96,ENE,68,0.7,2.0,40,0.00,,,0.00,WUHU216HW,2013-10-12 05:22:00,
2013-10-11 22:27:00,60.1,35.7,29.96,East,90,0.0,1.8,40,0.00,,,0.00,WUHU216HW,2013-10-12 05:27:00,
2013-10-11 22:32:00,59.9,35.6,29.96,East,90,0.0,1.1,40,0.00,,,0.00,WUHU216HW,2013-10-12 05:32:00,
2013-10-11 22:37:00,59.9,35.6,29.96,WSW,248,0.7,1.3,40,0.00,,,0.00,WUHU216HW,2013-10-12 05:37:00,
2013-10-11 22:42:00,59.9,35.6,29.96,WSW,248,0.0,1.3,40,0.00,,,0.00,WUHU216HW,2013-10-12 05:42:00,
2013-10-11 22:47:00,59.9,35.6,29.95,NW,315,0.0,1.1,40,0.00,,,0.00,WUHU216HW,2013-10-12 05:47:00,
2013-10-11 22:52:00,59.8,36.0,29.96,NW,315,0.0,0.0,41,0.00,,,0.00,WUHU216HW,2013-10-12 05:52:00,
2013-10-11 22:57:00,59.8,36.0,29.96,NW,315,0.0,0.0,41,0.00,,,0.00,WUHU216HW,2013-10-12 05:57:00,
2013-10-11 23:02:00,59.8,36.0,29.96,NNW,338,0.0,0.4,41,0.00,,,0.00,WUHU216HW,2013-10-12 06:02:00,
2013-10-11 23:07:00,59.8,36.0,29.96,NW,315,0.0,0.4,41,0.00,,,0.00,WUHU216HW,2013-10-12 06:07:00,
2013-10-11 23:12:00,59.4,35.6,29.96,North,0,0.4,1.1,41,0.00,,,0.00,WUHU216HW,2013-10-12 06:12:00,
2013-10-11 23:17:00,59.4,35.6,29.96,ENE,68,0.0,1.3,41,0.00,,,0.00,WUHU216HW,2013-10-12 06:17:00,
2013-10-11 23:22:00,59.2,35.5,29.96,ENE,68,0.4,1.3,41,0.00,,,0.00,WUHU216HW,2013-10-12 06:22:00,
2013-10-11 23:27:00,59.0,35.3,29.96,North,0,1.8,2.9,41,0.00,,,0.00,WUHU216HW,2013-10-12 06:27:00,
2013-10-11 23:32:00,59.0,35.9,29.96,North,0,0.9,2.9,42,0.00,,,0.00,WUHU216HW,2013-10-12 06:32:00,
2013-10-11 23:37:00,59.2,35.5,29.96,NNW,338,1.3,2.9,41,0.00,,,0.00,WUHU216HW,2013-10-12 06:37:00,
2013-10-11 23:42:00,59.2,35.5,29.96,WNW,293,0.7,2.5,41,0.00,,,0.00,WUHU216HW,2013-10-12 06:42:00,
2013-10-11 23:47:00,59.2,35.5,29.96,NNE,23,0.4,1.8,41,0.00,,,0.00,WUHU216HW,2013-10-12 06:47:00,
2013-10-11 23:52:00,59.0,35.3,29.96,WSW,248,0.7,1.8,41,0.00,,,0.00,WUHU216HW,2013-10-12 06:52:00,
2013-10-11 23:57:00,59.0,35.9,29.95,WNW,293,1.8,2.0,42,0.00,,,0.00,WUHU216HW,2013-10-12 06:57:00,